Погода в Коркино

Россия / Челябинская область     54°53′32″N   61°23′34″E
темп.,
°C
ветер,
м/с
пор.,
м/с
влажн.,
%
обл.,
%
осадки,
мм/ч
давл.,
гПа
погр.,
м
9 мая, вс
вс923:00+15ююв1138100 0.0 101511
02:00+14з2242100 0.0 101520
05:00+13ссз3342100 0.0 101545
08:00+14с2444100 0.0 1015200
11:00+19с5632100 0.0 1014569
14:00+22св6828100 0.0 10142791
17:00+21ссв3535100 0.0 10151285
20:00+16с235385 0.0 1017102
10 мая, пн
пн1023:00+14в3968100 0.1 1019497
02:00+14ссв0363100 0.1 1019132
05:00+12с4972100 0.1 1020242
08:00+14св585524 0.0 1021536
11:00+17св673899 0.0 10211222
14:00+19всв672965 0.0 10221728
17:00+20всв66285 0.0 10221788
20:00+16всв364032 0.0 1024116
11 мая, вт
вт1123:00+12в33481 0.0 102525
02:00+10вюв11490 0.0 102710
05:00+9вюв11510 0.0 102810
08:00+13вюв11413 0.0 1029243
11:00+18вюв11305 0.0 10291413
14:00+20всв0026100 0.0 10281629
17:00+20з0125100 0.0 10281654
20:00+18ю0035100 0.0 102911
12 мая, ср
ср1223:00+15юз113711 0.0 102910
02:00+13з33434 0.0 103019
05:00+11з33485 0.0 103021
08:00+16сз244044 0.0 1030253
11:00+21ссз454387 0.0 10291005
14:00+23ссз463970 0.0 10282108
17:00+24с5634100 0.0 10272280
20:00+19св364496 0.0 1028120
13 мая, чт
чт1323:00+16св2256100 0.0 102919
02:00+14зюз226397 0.0 102910
05:00+13сз226857 0.0 102915
08:00+17ссз345326 0.0 1029333
11:00+22с344331 0.0 10281415
14:00+24ссз45355 0.0 10272005
17:00+25с46315 0.0 10272223
20:00+22ссз22415 0.0 102711